contact:dominique.lefevre@mio.osupytheas.fr, maurice.libes@osupytheas.fr, didier.mallarino@osupytheas.fr
Project:EMSO http://www.emso-fr.org/EMSO-France
Depth: 2436.0 m
Title:EMSO Ligure Ouest : Data MII capteur MICROCAT
DateTime_Computer,Latitude,Longitude,Temperature,Conductivity,Pressure,DateTime_Instrument
DateTime_Computer,Latitude,Longitude,degC,S m-1,dbar,DateTime_Instrument
2022-04-11T00:01:50Z,42.805,6.029,13.2996,4.60033,2470.52,2022-4-11T02:03:28Z
2022-04-11T00:04:53Z,42.805,6.029,13.2998,4.60033,2470.507,2022-4-11T02:06:31Z
2022-04-11T00:07:56Z,42.805,6.029,13.2998,4.60033,2470.507,2022-4-11T02:09:34Z
2022-04-11T00:10:59Z,42.805,6.029,13.2997,4.60032,2470.52,2022-4-11T02:12:37Z
2022-04-11T00:14:02Z,42.805,6.029,13.2997,4.60032,2470.507,2022-4-11T02:15:41Z
2022-04-11T00:17:06Z,42.805,6.029,13.2996,4.60034,2470.53,2022-4-11T02:18:44Z
2022-04-11T00:20:09Z,42.805,6.029,13.2997,4.60033,2470.544,2022-4-11T02:21:47Z
2022-04-11T00:23:12Z,42.805,6.029,13.2998,4.60033,2470.507,2022-4-11T02:24:50Z
2022-04-11T00:26:15Z,42.805,6.029,13.2999,4.60033,2470.507,2022-4-11T02:27:53Z
2022-04-11T00:29:18Z,42.805,6.029,13.3001,4.60035,2470.507,2022-4-11T02:30:56Z
2022-04-11T00:32:21Z,42.805,6.029,13.2998,4.60033,2470.507,2022-4-11T02:33:59Z
2022-04-11T00:35:24Z,42.805,6.029,13.2997,4.60033,2470.507,2022-4-11T02:37:02Z
2022-04-11T00:38:27Z,42.805,6.029,13.3000,4.60035,2470.53,2022-4-11T02:40:06Z
2022-04-11T00:41:31Z,42.805,6.029,13.2998,4.60033,2470.53,2022-4-11T02:43:09Z
2022-04-11T00:44:34Z,42.805,6.029,13.3000,4.60033,2470.507,2022-4-11T02:46:12Z
2022-04-11T00:47:37Z,42.805,6.029,13.3001,4.60033,2470.53,2022-4-11T02:49:15Z
2022-04-11T00:50:40Z,42.805,6.029,13.2998,4.60033,2470.53,2022-4-11T02:52:18Z
2022-04-11T00:53:43Z,42.805,6.029,13.3000,4.60034,2470.567,2022-4-11T02:55:21Z
2022-04-11T00:56:46Z,42.805,6.029,13.3003,4.60036,2470.567,2022-4-11T02:58:24Z
2022-04-11T00:59:49Z,42.805,6.029,13.2999,4.60034,2470.567,2022-4-11T03:01:27Z
2022-04-11T01:02:52Z,42.805,6.029,13.2996,4.60033,2470.553,2022-4-11T03:04:30Z
2022-04-11T01:05:56Z,42.805,6.029,13.2998,4.60033,2470.53,2022-4-11T03:07:34Z
2022-04-11T01:08:59Z,42.805,6.029,13.3001,4.60033,2470.544,2022-4-11T03:10:37Z
2022-04-11T01:12:02Z,42.805,6.029,13.3000,4.60033,2470.53,2022-4-11T03:13:40Z
2022-04-11T01:15:05Z,42.805,6.029,13.2996,4.60038,2470.577,2022-4-11T03:16:43Z
2022-04-11T01:18:08Z,42.805,6.029,13.2997,4.60033,2470.553,2022-4-11T03:19:46Z
2022-04-11T01:21:11Z,42.805,6.029,13.2999,4.60033,2470.553,2022-4-11T03:22:49Z
2022-04-11T01:24:14Z,42.805,6.029,13.2996,4.60033,2470.544,2022-4-11T03:25:52Z
2022-04-11T01:27:17Z,42.805,6.029,13.3002,4.60033,2470.577,2022-4-11T03:28:55Z
2022-04-11T01:30:20Z,42.805,6.029,13.3000,4.60033,2470.553,2022-4-11T03:31:59Z
2022-04-11T01:33:24Z,42.805,6.029,13.2995,4.60033,2470.53,2022-4-11T03:35:02Z
2022-04-11T01:36:27Z,42.805,6.029,13.3000,4.60033,2470.577,2022-4-11T03:38:05Z
2022-04-11T01:39:30Z,42.805,6.029,13.3000,4.60033,2470.567,2022-4-11T03:41:08Z
2022-04-11T01:42:33Z,42.805,6.029,13.2999,4.60034,2470.577,2022-4-11T03:44:11Z
2022-04-11T01:45:36Z,42.805,6.029,13.2997,4.60033,2470.53,2022-4-11T03:47:14Z
2022-04-11T01:48:39Z,42.805,6.029,13.2996,4.60033,2470.567,2022-4-11T03:50:17Z
2022-04-11T01:51:42Z,42.805,6.029,13.3001,4.60032,2470.553,2022-4-11T03:53:20Z
2022-04-11T01:54:45Z,42.805,6.029,13.3001,4.60033,2470.567,2022-4-11T03:56:24Z
2022-04-11T01:57:49Z,42.805,6.029,13.2993,4.60034,2470.567,2022-4-11T03:59:27Z
2022-04-11T02:00:52Z,42.805,6.029,13.2996,4.60033,2470.577,2022-4-11T04:02:30Z
2022-04-11T02:03:55Z,42.805,6.029,13.2996,4.60033,2470.6,2022-4-11T04:05:33Z
2022-04-11T02:06:58Z,42.805,6.029,13.3001,4.60033,2470.591,2022-4-11T04:08:36Z
2022-04-11T02:10:01Z,42.805,6.029,13.3001,4.60035,2470.577,2022-4-11T04:11:39Z
2022-04-11T02:13:04Z,42.805,6.029,13.3000,4.60033,2470.577,2022-4-11T04:14:42Z
2022-04-11T02:16:07Z,42.805,6.029,13.2998,4.60033,2470.591,2022-4-11T04:17:45Z
2022-04-11T02:19:10Z,42.805,6.029,13.3000,4.60033,2470.6,2022-4-11T04:20:48Z
2022-04-11T02:22:14Z,42.805,6.029,13.2999,4.60034,2470.591,2022-4-11T04:23:52Z
2022-04-11T02:25:17Z,42.805,6.029,13.2998,4.60032,2470.577,2022-4-11T04:26:55Z
2022-04-11T02:28:20Z,42.805,6.029,13.2997,4.60033,2470.591,2022-4-11T04:29:58Z
2022-04-11T02:31:23Z,42.805,6.029,13.2994,4.60033,2470.591,2022-4-11T04:33:01Z
2022-04-11T02:34:26Z,42.805,6.029,13.2995,4.60033,2470.591,2022-4-11T04:36:04Z
2022-04-11T02:37:29Z,42.805,6.029,13.2998,4.60033,2470.577,2022-4-11T04:39:07Z
2022-04-11T02:40:32Z,42.805,6.029,13.2998,4.60033,2470.6,2022-4-11T04:42:10Z
2022-04-11T02:43:35Z,42.805,6.029,13.2995,4.60032,2470.577,2022-4-11T04:45:13Z
2022-04-11T02:46:39Z,42.805,6.029,13.2996,4.60033,2470.577,2022-4-11T04:48:17Z
2022-04-11T02:49:42Z,42.805,6.029,13.3000,4.60033,2470.614,2022-4-11T04:51:20Z
2022-04-11T02:52:45Z,42.805,6.029,13.3001,4.60033,2470.577,2022-4-11T04:54:23Z
2022-04-11T02:55:48Z,42.805,6.029,13.2996,4.60033,2470.577,2022-4-11T04:57:26Z
2022-04-11T02:58:51Z,42.805,6.029,13.3000,4.60033,2470.553,2022-4-11T05:00:29Z
2022-04-11T03:01:54Z,42.805,6.029,13.2995,4.60033,2470.614,2022-4-11T05:03:32Z
2022-04-11T03:04:57Z,42.805,6.029,13.2998,4.60032,2470.614,2022-4-11T05:06:35Z
2022-04-11T03:08:00Z,42.805,6.029,13.3000,4.60033,2470.577,2022-4-11T05:09:38Z
2022-04-11T03:11:03Z,42.805,6.029,13.2998,4.60033,2470.6,2022-4-11T05:12:42Z
2022-04-11T03:14:07Z,42.805,6.029,13.2998,4.60033,2470.586,2022-4-11T05:15:45Z
2022-04-11T03:17:10Z,42.805,6.029,13.2999,4.60034,2470.577,2022-4-11T05:18:48Z
2022-04-11T03:20:13Z,42.805,6.029,13.2999,4.60037,2470.614,2022-4-11T05:21:51Z
2022-04-11T03:23:16Z,42.805,6.029,13.2998,4.60034,2470.577,2022-4-11T05:24:54Z
2022-04-11T03:26:19Z,42.805,6.029,13.2999,4.60033,2470.614,2022-4-11T05:27:57Z
2022-04-11T03:29:22Z,42.805,6.029,13.3000,4.60035,2470.577,2022-4-11T05:31:00Z
2022-04-11T03:32:25Z,42.805,6.029,13.3000,4.60034,2470.577,2022-4-11T05:34:03Z
2022-04-11T03:35:28Z,42.805,6.029,13.2996,4.60033,2470.6,2022-4-11T05:37:07Z
2022-04-11T03:38:32Z,42.805,6.029,13.3000,4.60033,2470.577,2022-4-11T05:40:10Z
2022-04-11T03:41:35Z,42.805,6.029,13.3002,4.60033,2470.6,2022-4-11T05:43:13Z
2022-04-11T03:44:38Z,42.805,6.029,13.2996,4.60033,2470.624,2022-4-11T05:46:16Z
2022-04-11T03:47:41Z,42.805,6.029,13.2998,4.60036,2470.614,2022-4-11T05:49:19Z
2022-04-11T03:50:44Z,42.805,6.029,13.3000,4.60033,2470.637,2022-4-11T05:52:22Z
2022-04-11T03:53:47Z,42.805,6.029,13.2998,4.60033,2470.591,2022-4-11T05:55:25Z
2022-04-11T03:56:50Z,42.805,6.029,13.2996,4.60035,2470.577,2022-4-11T05:58:28Z
2022-04-11T03:59:53Z,42.805,6.029,13.2998,4.60034,2470.567,2022-4-11T06:01:31Z
2022-04-11T04:02:56Z,42.805,6.029,13.2998,4.60033,2470.6,2022-4-11T06:04:35Z
2022-04-11T04:06:00Z,42.805,6.029,13.2997,4.60033,2470.614,2022-4-11T06:07:38Z
2022-04-11T04:09:03Z,42.805,6.029,13.2998,4.60034,2470.614,2022-4-11T06:10:41Z
2022-04-11T04:12:06Z,42.805,6.029,13.2998,4.60036,2470.614,2022-4-11T06:13:44Z
2022-04-11T04:15:09Z,42.805,6.029,13.2997,4.60032,2470.591,2022-4-11T06:16:47Z
2022-04-11T04:18:12Z,42.805,6.029,13.3000,4.60034,2470.577,2022-4-11T06:19:50Z
2022-04-11T04:21:15Z,42.805,6.029,13.2996,4.60034,2470.6,2022-4-11T06:22:53Z
2022-04-11T04:24:18Z,42.805,6.029,13.2998,4.60033,2470.614,2022-4-11T06:25:56Z
2022-04-11T04:27:21Z,42.805,6.029,13.2999,4.60033,2470.591,2022-4-11T06:29:00Z
2022-04-11T04:30:25Z,42.805,6.029,13.2998,4.60033,2470.614,2022-4-11T06:32:03Z
2022-04-11T04:33:28Z,42.805,6.029,13.2998,4.60032,2470.6,2022-4-11T06:35:06Z
2022-04-11T04:36:31Z,42.805,6.029,13.2996,4.60033,2470.577,2022-4-11T06:38:09Z
2022-04-11T04:39:34Z,42.805,6.029,13.3000,4.60033,2470.591,2022-4-11T06:41:12Z
2022-04-11T04:42:37Z,42.805,6.029,13.2996,4.60033,2470.577,2022-4-11T06:44:15Z
2022-04-11T04:45:40Z,42.805,6.029,13.2999,4.60033,2470.6,2022-4-11T06:47:18Z
2022-04-11T04:48:43Z,42.805,6.029,13.2999,4.60033,2470.577,2022-4-11T06:50:21Z
2022-04-11T04:51:46Z,42.805,6.029,13.3001,4.60033,2470.6,2022-4-11T06:53:24Z
2022-04-11T04:54:50Z,42.805,6.029,13.2998,4.60033,2470.577,2022-4-11T06:56:28Z
2022-04-11T04:57:53Z,42.805,6.029,13.3000,4.60033,2470.614,2022-4-11T06:59:31Z
2022-04-11T05:00:56Z,42.805,6.029,13.2996,4.60035,2470.577,2022-4-11T07:02:34Z
2022-04-11T05:03:59Z,42.805,6.029,13.2994,4.60033,2470.567,2022-4-11T07:05:37Z
2022-04-11T05:07:02Z,42.805,6.029,13.2994,4.60033,2470.567,2022-4-11T07:08:40Z
2022-04-11T05:10:05Z,42.805,6.029,13.2994,4.60034,2470.614,2022-4-11T07:11:43Z
2022-04-11T05:13:08Z,42.805,6.029,13.2996,4.60032,2470.577,2022-4-11T07:14:46Z
2022-04-11T05:16:11Z,42.805,6.029,13.3002,4.60033,2470.591,2022-4-11T07:17:49Z
2022-04-11T05:19:15Z,42.805,6.029,13.2999,4.60033,2470.591,2022-4-11T07:20:53Z
2022-04-11T05:22:18Z,42.805,6.029,13.3000,4.60033,2470.591,2022-4-11T07:23:56Z
2022-04-11T05:25:21Z,42.805,6.029,13.3001,4.60033,2470.553,2022-4-11T07:26:59Z
2022-04-11T05:28:24Z,42.805,6.029,13.2998,4.60033,2470.6,2022-4-11T07:30:02Z
2022-04-11T05:31:27Z,42.805,6.029,13.2997,4.60036,2470.553,2022-4-11T07:33:05Z
2022-04-11T05:34:30Z,42.805,6.029,13.2997,4.60033,2470.567,2022-4-11T07:36:08Z
2022-04-11T05:37:33Z,42.805,6.029,13.2997,4.60033,2470.553,2022-4-11T07:39:11Z
2022-04-11T05:40:36Z,42.805,6.029,13.2998,4.60034,2470.591,2022-4-11T07:42:14Z
2022-04-11T05:43:39Z,42.805,6.029,13.2998,4.60034,2470.553,2022-4-11T07:45:18Z
2022-04-11T05:46:43Z,42.805,6.029,13.3001,4.60033,2470.577,2022-4-11T07:48:21Z
2022-04-11T05:49:46Z,42.805,6.029,13.2998,4.60035,2470.567,2022-4-11T07:51:24Z
2022-04-11T05:52:49Z,42.805,6.029,13.2996,4.60033,2470.553,2022-4-11T07:54:27Z
2022-04-11T05:55:52Z,42.805,6.029,13.2999,4.60033,2470.567,2022-4-11T07:57:30Z
2022-04-11T05:58:55Z,42.805,6.029,13.2997,4.60033,2470.553,2022-4-11T08:00:33Z
2022-04-11T06:01:58Z,42.805,6.029,13.2996,4.60033,2470.567,2022-4-11T08:03:36Z
2022-04-11T06:05:01Z,42.805,6.029,13.2998,4.60033,2470.53,2022-4-11T08:06:39Z
2022-04-11T06:08:04Z,42.805,6.029,13.2997,4.60034,2470.567,2022-4-11T08:09:43Z
2022-04-11T06:11:08Z,42.805,6.029,13.2998,4.60033,2470.6,2022-4-11T08:12:46Z
2022-04-11T06:14:11Z,42.805,6.029,13.2998,4.60031,2470.53,2022-4-11T08:15:49Z
2022-04-11T06:17:14Z,42.805,6.029,13.2998,4.60032,2470.553,2022-4-11T08:18:52Z
2022-04-11T06:20:17Z,42.805,6.029,13.2998,4.60034,2470.577,2022-4-11T08:21:55Z
2022-04-11T06:23:20Z,42.805,6.029,13.3000,4.60035,2470.553,2022-4-11T08:24:58Z
2022-04-11T06:26:23Z,42.805,6.029,13.2999,4.60033,2470.591,2022-4-11T08:28:01Z
2022-04-11T06:29:26Z,42.805,6.029,13.2998,4.60035,2470.53,2022-4-11T08:31:04Z
2022-04-11T06:32:29Z,42.805,6.029,13.2997,4.60036,2470.53,2022-4-11T08:34:07Z
2022-04-11T06:35:33Z,42.805,6.029,13.3000,4.60036,2470.553,2022-4-11T08:37:11Z
2022-04-11T06:38:36Z,42.805,6.029,13.3000,4.60036,2470.553,2022-4-11T08:40:14Z
2022-04-11T06:41:39Z,42.805,6.029,13.2997,4.60033,2470.553,2022-4-11T08:43:17Z
2022-04-11T06:44:42Z,42.805,6.029,13.2997,4.60033,2470.553,2022-4-11T08:46:20Z
2022-04-11T06:47:45Z,42.805,6.029,13.2998,4.60033,2470.553,2022-4-11T08:49:23Z
2022-04-11T06:50:48Z,42.805,6.029,13.2996,4.60033,2470.544,2022-4-11T08:52:26Z
2022-04-11T06:53:51Z,42.805,6.029,13.2996,4.60033,2470.516,2022-4-11T08:55:29Z
2022-04-11T06:56:54Z,42.805,6.029,13.2998,4.60033,2470.553,2022-4-11T08:58:32Z
2022-04-11T06:59:57Z,42.805,6.029,13.3000,4.60033,2470.553,2022-4-11T09:01:36Z
2022-04-11T07:03:01Z,42.805,6.029,13.3000,4.60033,2470.591,2022-4-11T09:04:39Z
2022-04-11T07:06:04Z,42.805,6.029,13.2999,4.60033,2470.53,2022-4-11T09:07:42Z
2022-04-11T07:09:07Z,42.805,6.029,13.3003,4.60032,2470.553,2022-4-11T09:10:45Z
2022-04-11T07:12:10Z,42.805,6.029,13.3000,4.60033,2470.53,2022-4-11T09:13:48Z
2022-04-11T07:15:13Z,42.805,6.029,13.3000,4.60032,2470.567,2022-4-11T09:16:51Z
2022-04-11T07:18:16Z,42.805,6.029,13.2997,4.60032,2470.553,2022-4-11T09:19:54Z
2022-04-11T07:21:19Z,42.805,6.029,13.2995,4.60033,2470.507,2022-4-11T09:22:57Z
2022-04-11T07:24:22Z,42.805,6.029,13.2997,4.60033,2470.53,2022-4-11T09:26:01Z
2022-04-11T07:27:26Z,42.805,6.029,13.2997,4.60036,2470.553,2022-4-11T09:29:04Z
2022-04-11T07:30:29Z,42.805,6.029,13.2999,4.60033,2470.577,2022-4-11T09:32:07Z
2022-04-11T07:33:32Z,42.805,6.029,13.2997,4.60033,2470.567,2022-4-11T09:35:10Z
2022-04-11T07:36:35Z,42.805,6.029,13.2996,4.60033,2470.567,2022-4-11T09:38:13Z
2022-04-11T07:39:38Z,42.805,6.029,13.2999,4.60033,2470.53,2022-4-11T09:41:16Z
2022-04-11T07:42:41Z,42.805,6.029,13.2996,4.60032,2470.53,2022-4-11T09:44:19Z
2022-04-11T07:45:44Z,42.805,6.029,13.3000,4.60033,2470.53,2022-4-11T09:47:22Z
2022-04-11T07:48:47Z,42.805,6.029,13.2996,4.60036,2470.53,2022-4-11T09:50:26Z
2022-04-11T07:51:51Z,42.805,6.029,13.3000,4.60034,2470.52,2022-4-11T09:53:29Z
2022-04-11T07:54:54Z,42.805,6.029,13.2996,4.60032,2470.507,2022-4-11T09:56:32Z
2022-04-11T07:57:57Z,42.805,6.029,13.2998,4.60033,2470.53,2022-4-11T09:59:35Z
2022-04-11T08:01:00Z,42.805,6.029,13.2999,4.60032,2470.553,2022-4-11T10:02:38Z
2022-04-11T08:04:03Z,42.805,6.029,13.2998,4.60035,2470.53,2022-4-11T10:05:41Z
2022-04-11T08:07:06Z,42.805,6.029,13.2996,4.60033,2470.567,2022-4-11T10:08:44Z
2022-04-11T08:10:09Z,42.805,6.029,13.2993,4.60033,2470.53,2022-4-11T10:11:47Z
2022-04-11T08:13:12Z,42.805,6.029,13.3000,4.60032,2470.553,2022-4-11T10:14:51Z
2022-04-11T08:16:16Z,42.805,6.029,13.3000,4.60032,2470.53,2022-4-11T10:17:54Z
2022-04-11T08:19:19Z,42.805,6.029,13.2995,4.60032,2470.53,2022-4-11T10:20:57Z
2022-04-11T08:22:22Z,42.805,6.029,13.3000,4.60033,2470.553,2022-4-11T10:24:00Z
2022-04-11T08:25:25Z,42.805,6.029,13.2998,4.60034,2470.577,2022-4-11T10:27:03Z
2022-04-11T08:28:28Z,42.805,6.029,13.2997,4.60033,2470.53,2022-4-11T10:30:06Z
2022-04-11T08:31:31Z,42.805,6.029,13.2998,4.60033,2470.544,2022-4-11T10:33:09Z
2022-04-11T08:34:34Z,42.805,6.029,13.2999,4.60032,2470.516,2022-4-11T10:36:12Z
2022-04-11T08:37:37Z,42.805,6.029,13.2995,4.60032,2470.507,2022-4-11T10:39:16Z
2022-04-11T08:40:41Z,42.805,6.029,13.3000,4.60033,2470.52,2022-4-11T10:42:19Z
2022-04-11T08:43:44Z,42.805,6.029,13.3002,4.60033,2470.507,2022-4-11T10:45:22Z
2022-04-11T08:46:47Z,42.805,6.029,13.2993,4.60033,2470.507,2022-4-11T10:48:25Z
2022-04-11T08:49:50Z,42.805,6.029,13.2997,4.60033,2470.544,2022-4-11T10:51:28Z
2022-04-11T08:52:53Z,42.805,6.029,13.2998,4.60033,2470.53,2022-4-11T10:54:31Z
2022-04-11T08:55:56Z,42.805,6.029,13.2997,4.60033,2470.52,2022-4-11T10:57:34Z
2022-04-11T08:58:59Z,42.805,6.029,13.2998,4.60033,2470.553,2022-4-11T11:00:37Z
2022-04-11T09:02:02Z,42.805,6.029,13.2996,4.60033,2470.507,2022-4-11T11:03:41Z
2022-04-11T09:05:06Z,42.805,6.029,13.2998,4.60033,2470.53,2022-4-11T11:06:44Z
2022-04-11T09:08:09Z,42.805,6.029,13.2995,4.60034,2470.53,2022-4-11T11:09:47Z
2022-04-11T09:11:12Z,42.805,6.029,13.2996,4.60033,2470.52,2022-4-11T11:12:50Z
2022-04-11T09:14:15Z,42.805,6.029,13.2996,4.60032,2470.52,2022-4-11T11:15:53Z
2022-04-11T09:17:18Z,42.805,6.029,13.2997,4.60031,2470.52,2022-4-11T11:18:56Z
2022-04-11T09:20:21Z,42.805,6.029,13.2996,4.60031,2470.53,2022-4-11T11:21:59Z
2022-04-11T09:23:24Z,42.805,6.029,13.2996,4.60033,2470.507,2022-4-11T11:25:02Z
2022-04-11T09:26:27Z,42.805,6.029,13.2998,4.60032,2470.553,2022-4-11T11:28:06Z
2022-04-11T09:29:31Z,42.805,6.029,13.2996,4.60031,2470.53,2022-4-11T11:31:09Z
2022-04-11T09:32:34Z,42.805,6.029,13.2998,4.60032,2470.507,2022-4-11T11:34:12Z
2022-04-11T09:35:37Z,42.805,6.029,13.2998,4.60033,2470.52,2022-4-11T11:37:15Z
2022-04-11T09:38:40Z,42.805,6.029,13.2997,4.60032,2470.507,2022-4-11T11:40:18Z
2022-04-11T09:41:43Z,42.805,6.029,13.2998,4.60033,2470.52,2022-4-11T11:43:21Z
2022-04-11T09:44:46Z,42.805,6.029,13.2997,4.60032,2470.507,2022-4-11T11:46:24Z
2022-04-11T09:47:49Z,42.805,6.029,13.2991,4.60033,2470.544,2022-4-11T11:49:27Z
2022-04-11T09:50:52Z,42.805,6.029,13.2997,4.60034,2470.483,2022-4-11T11:52:31Z
2022-04-11T09:53:56Z,42.805,6.029,13.2994,4.60033,2470.507,2022-4-11T11:55:34Z
2022-04-11T09:56:59Z,42.805,6.029,13.2999,4.60033,2470.507,2022-4-11T11:58:37Z
2022-04-11T10:00:02Z,42.805,6.029,13.3000,4.60032,2470.483,2022-4-11T12:01:40Z
2022-04-11T10:03:05Z,42.805,6.029,13.3000,4.60033,2470.507,2022-4-11T12:04:43Z
2022-04-11T10:06:08Z,42.805,6.029,13.2998,4.60031,2470.483,2022-4-11T12:07:46Z
2022-04-11T10:09:11Z,42.805,6.029,13.2996,4.60031,2470.497,2022-4-11T12:10:49Z
2022-04-11T10:12:14Z,42.805,6.029,13.2994,4.60033,2470.544,2022-4-11T12:13:52Z
2022-04-11T10:15:17Z,42.805,6.029,13.2999,4.60033,2470.507,2022-4-11T12:16:56Z
2022-04-11T10:18:21Z,42.805,6.029,13.3000,4.60034,2470.483,2022-4-11T12:19:59Z
2022-04-11T10:21:24Z,42.805,6.029,13.2998,4.60035,2470.483,2022-4-11T12:23:02Z
2022-04-11T10:24:27Z,42.805,6.029,13.2999,4.60034,2470.507,2022-4-11T12:26:05Z
2022-04-11T10:27:30Z,42.805,6.029,13.2998,4.60034,2470.497,2022-4-11T12:29:08Z
2022-04-11T10:30:33Z,42.805,6.029,13.2999,4.60033,2470.52,2022-4-11T12:32:11Z
2022-04-11T10:33:36Z,42.805,6.029,13.3000,4.60033,2470.497,2022-4-11T12:35:14Z
2022-04-11T10:36:39Z,42.805,6.029,13.2996,4.60033,2470.507,2022-4-11T12:38:17Z
2022-04-11T10:39:42Z,42.805,6.029,13.2998,4.60033,2470.483,2022-4-11T12:41:21Z
2022-04-11T10:42:46Z,42.805,6.029,13.2998,4.60034,2470.507,2022-4-11T12:44:24Z
2022-04-11T10:45:49Z,42.805,6.029,13.2995,4.60034,2470.507,2022-4-11T12:47:27Z
2022-04-11T10:48:52Z,42.805,6.029,13.2999,4.60033,2470.483,2022-4-11T12:50:30Z
2022-04-11T10:51:55Z,42.805,6.029,13.2997,4.60036,2470.474,2022-4-11T12:53:33Z
2022-04-11T10:54:58Z,42.805,6.029,13.2996,4.60033,2470.474,2022-4-11T12:56:36Z
2022-04-11T10:58:01Z,42.805,6.029,13.2998,4.60033,2470.46,2022-4-11T12:59:39Z
2022-04-11T11:01:04Z,42.805,6.029,13.2997,4.60033,2470.46,2022-4-11T13:02:42Z
2022-04-11T11:04:07Z,42.805,6.029,13.2996,4.60033,2470.474,2022-4-11T13:05:46Z
2022-04-11T11:07:11Z,42.805,6.029,13.2993,4.60032,2470.497,2022-4-11T13:08:49Z
2022-04-11T11:10:14Z,42.805,6.029,13.2997,4.60033,2470.47,2022-4-11T13:11:52Z
2022-04-11T11:13:17Z,42.805,6.029,13.2999,4.60032,2470.474,2022-4-11T13:14:55Z
2022-04-11T11:16:20Z,42.805,6.029,13.2998,4.60033,2470.46,2022-4-11T13:17:58Z
2022-04-11T11:19:23Z,42.805,6.029,13.2997,4.60034,2470.474,2022-4-11T13:21:01Z
2022-04-11T11:22:26Z,42.805,6.029,13.2998,4.60033,2470.46,2022-4-11T13:24:04Z
2022-04-11T11:25:29Z,42.805,6.029,13.3000,4.60032,2470.483,2022-4-11T13:27:07Z
2022-04-11T11:28:32Z,42.805,6.029,13.2997,4.60032,2470.474,2022-4-11T13:30:11Z
2022-04-11T11:31:36Z,42.805,6.029,13.2998,4.60033,2470.507,2022-4-11T13:33:14Z
2022-04-11T11:34:39Z,42.805,6.029,13.2996,4.60034,2470.497,2022-4-11T13:36:17Z
2022-04-11T11:37:42Z,42.805,6.029,13.2996,4.60034,2470.483,2022-4-11T13:39:20Z
2022-04-11T11:40:45Z,42.805,6.029,13.2996,4.60036,2470.483,2022-4-11T13:42:23Z
2022-04-11T11:43:48Z,42.805,6.029,13.2998,4.60036,2470.437,2022-4-11T13:45:26Z
2022-04-11T11:46:51Z,42.805,6.029,13.3000,4.60039,2470.437,2022-4-11T13:48:29Z
2022-04-11T11:49:54Z,42.805,6.029,13.2997,4.60034,2470.45,2022-4-11T13:51:32Z
2022-04-11T11:52:57Z,42.805,6.029,13.2998,4.60037,2470.497,2022-4-11T13:54:36Z
2022-04-11T11:56:01Z,42.805,6.029,13.2997,4.60032,2470.46,2022-4-11T13:57:39Z
2022-04-11T11:59:04Z,42.805,6.029,13.2998,4.60035,2470.437,2022-4-11T14:00:42Z
2022-04-11T12:02:07Z,42.805,6.029,13.2996,4.60036,2470.474,2022-4-11T14:03:45Z
2022-04-11T12:05:10Z,42.805,6.029,13.2999,4.60035,2470.474,2022-4-11T14:06:48Z
2022-04-11T12:08:13Z,42.805,6.029,13.2997,4.60033,2470.46,2022-4-11T14:09:51Z
2022-04-11T12:11:16Z,42.805,6.029,13.3000,4.60033,2470.437,2022-4-11T14:12:54Z
2022-04-11T12:14:19Z,42.805,6.029,13.2995,4.60033,2470.437,2022-4-11T14:15:57Z
2022-04-11T12:17:22Z,42.805,6.029,13.2997,4.60033,2470.46,2022-4-11T14:19:01Z
2022-04-11T12:20:26Z,42.805,6.029,13.2997,4.60035,2470.474,2022-4-11T14:22:04Z
2022-04-11T12:23:29Z,42.805,6.029,13.2997,4.60034,2470.497,2022-4-11T14:25:07Z
2022-04-11T12:26:32Z,42.805,6.029,13.2997,4.60036,2470.46,2022-4-11T14:28:10Z
2022-04-11T12:29:35Z,42.805,6.029,13.3000,4.60033,2470.437,2022-4-11T14:31:13Z
2022-04-11T12:32:38Z,42.805,6.029,13.2998,4.60033,2470.46,2022-4-11T14:34:16Z
2022-04-11T12:35:41Z,42.805,6.029,13.3000,4.60033,2470.483,2022-4-11T14:37:19Z
2022-04-11T12:38:44Z,42.805,6.029,13.2998,4.60033,2470.46,2022-4-11T14:40:22Z
2022-04-11T12:41:47Z,42.805,6.029,13.2996,4.60033,2470.497,2022-4-11T14:43:26Z
2022-04-11T12:44:51Z,42.805,6.029,13.2999,4.60033,2470.46,2022-4-11T14:46:29Z
2022-04-11T12:47:54Z,42.805,6.029,13.2997,4.60033,2470.437,2022-4-11T14:49:32Z
2022-04-11T12:50:57Z,42.805,6.029,13.2999,4.60033,2470.46,2022-4-11T14:52:35Z
2022-04-11T12:54:00Z,42.805,6.029,13.2996,4.60033,2470.437,2022-4-11T14:55:38Z
2022-04-11T12:57:03Z,42.805,6.029,13.2996,4.60035,2470.474,2022-4-11T14:58:41Z
2022-04-11T13:00:06Z,42.805,6.029,13.2998,4.60033,2470.45,2022-4-11T15:01:44Z
2022-04-11T13:03:09Z,42.805,6.029,13.2997,4.60033,2470.45,2022-4-11T15:04:47Z
2022-04-11T13:06:13Z,42.805,6.029,13.2997,4.60032,2470.46,2022-4-11T15:07:51Z
2022-04-11T13:09:16Z,42.805,6.029,13.3000,4.60033,2470.46,2022-4-11T15:10:54Z
2022-04-11T13:12:19Z,42.805,6.029,13.2998,4.60034,2470.483,2022-4-11T15:13:57Z
2022-04-11T13:15:22Z,42.805,6.029,13.2996,4.60033,2470.46,2022-4-11T15:17:00Z
2022-04-11T13:18:25Z,42.805,6.029,13.2998,4.60035,2470.483,2022-4-11T15:20:03Z
2022-04-11T13:21:28Z,42.805,6.029,13.2997,4.60034,2470.483,2022-4-11T15:23:06Z
2022-04-11T13:24:31Z,42.805,6.029,13.2999,4.60033,2470.437,2022-4-11T15:26:09Z
2022-04-11T13:27:34Z,42.805,6.029,13.2998,4.60033,2470.46,2022-4-11T15:29:12Z
2022-04-11T13:30:38Z,42.805,6.029,13.2996,4.60033,2470.46,2022-4-11T15:32:16Z
2022-04-11T13:33:41Z,42.805,6.029,13.2996,4.60034,2470.483,2022-4-11T15:35:19Z
2022-04-11T13:36:44Z,42.805,6.029,13.2998,4.60032,2470.497,2022-4-11T15:38:22Z
2022-04-11T13:39:47Z,42.805,6.029,13.2998,4.60033,2470.497,2022-4-11T15:41:25Z
2022-04-11T13:42:50Z,42.805,6.029,13.3003,4.60033,2470.483,2022-4-11T15:44:28Z
2022-04-11T13:45:53Z,42.805,6.029,13.2997,4.60034,2470.46,2022-4-11T15:47:31Z
2022-04-11T13:48:56Z,42.805,6.029,13.2998,4.60033,2470.46,2022-4-11T15:50:34Z
2022-04-11T13:51:59Z,42.805,6.029,13.2998,4.60033,2470.52,2022-4-11T15:53:38Z
2022-04-11T13:55:03Z,42.805,6.029,13.3000,4.60033,2470.497,2022-4-11T15:56:41Z
2022-04-11T13:58:06Z,42.805,6.029,13.2997,4.60032,2470.46,2022-4-11T15:59:44Z
2022-04-11T14:01:09Z,42.805,6.029,13.2998,4.60033,2470.497,2022-4-11T16:02:47Z
2022-04-11T14:04:12Z,42.805,6.029,13.2995,4.60033,2470.52,2022-4-11T16:05:50Z
2022-04-11T14:07:15Z,42.805,6.029,13.2998,4.60033,2470.483,2022-4-11T16:08:53Z
2022-04-11T14:10:18Z,42.805,6.029,13.3000,4.60033,2470.46,2022-4-11T16:11:56Z
2022-04-11T14:13:21Z,42.805,6.029,13.3000,4.60034,2470.483,2022-4-11T16:14:59Z
2022-04-11T14:16:24Z,42.805,6.029,13.2999,4.60033,2470.483,2022-4-11T16:18:03Z
2022-04-11T14:19:28Z,42.805,6.029,13.2996,4.60035,2470.483,2022-4-11T16:21:06Z
2022-04-11T14:22:31Z,42.805,6.029,13.2997,4.60034,2470.483,2022-4-11T16:24:09Z
2022-04-11T14:25:34Z,42.805,6.029,13.2996,4.60035,2470.483,2022-4-11T16:27:12Z
2022-04-11T14:28:37Z,42.805,6.029,13.3000,4.60034,2470.52,2022-4-11T16:30:15Z
2022-04-11T14:31:40Z,42.805,6.029,13.2999,4.60032,2470.52,2022-4-11T16:33:18Z
2022-04-11T14:34:43Z,42.805,6.029,13.2999,4.60034,2470.483,2022-4-11T16:36:21Z
2022-04-11T14:37:46Z,42.805,6.029,13.2997,4.60033,2470.483,2022-4-11T16:39:24Z
2022-04-11T14:40:49Z,42.805,6.029,13.2996,4.60034,2470.483,2022-4-11T16:42:28Z
2022-04-11T14:43:53Z,42.805,6.029,13.2998,4.60035,2470.483,2022-4-11T16:45:31Z
2022-04-11T14:46:56Z,42.805,6.029,13.2998,4.60033,2470.483,2022-4-11T16:48:34Z
2022-04-11T14:49:59Z,42.805,6.029,13.3000,4.60036,2470.483,2022-4-11T16:51:37Z
2022-04-11T14:53:02Z,42.805,6.029,13.2994,4.60033,2470.544,2022-4-11T16:54:40Z
2022-04-11T14:56:05Z,42.805,6.029,13.2996,4.60035,2470.53,2022-4-11T16:57:43Z
2022-04-11T14:59:08Z,42.805,6.029,13.2997,4.60033,2470.46,2022-4-11T17:00:46Z
2022-04-11T15:02:11Z,42.805,6.029,13.2998,4.60033,2470.474,2022-4-11T17:03:49Z
2022-04-11T15:05:14Z,42.805,6.029,13.2996,4.60033,2470.507,2022-4-11T17:06:53Z
2022-04-11T15:08:18Z,42.805,6.029,13.2998,4.60035,2470.52,2022-4-11T17:09:56Z
2022-04-11T15:11:21Z,42.805,6.029,13.2998,4.60035,2470.553,2022-4-11T17:12:59Z
2022-04-11T15:14:24Z,42.805,6.029,13.2996,4.60033,2470.497,2022-4-11T17:16:02Z